Weather in Kulyaba

Russia / Novosibirsk Oblast     56°31′16″N   77°11′24″E
temp.,
°C
wind,
m/s
gust,
m/s
humid.,
%
clouds,
%
prec.,
mm/h
press.,
hPa
HPBL,
m
25 february, thu
thu2501:00−18ene3896100 2.9 1009532
04:00−21ssw3698100 0.5 1008250
07:00−25sw41095100 0.7 1010429
10:00−25sw4896100 0.1 1011399
13:00−24sw4896100 0.3 1012422
16:00−23sw4895100 0.1 1013481
19:00−24sw3896100 0.3 1015398
22:00−24wsw3797100 0.1 1017297
26 february, fri
fri2601:00−25nw3697100 0.2 1018290
04:00−30wnw369696 0.0 1021170
07:00−34wnw239781 0.0 102471
10:00−34w24970 0.0 1027105
13:00−29wsw249525 0.0 1029319
16:00−26sw3593100 0.0 1030395
19:00−28sw2695100 0.0 1031225
22:00−30sw249793 0.0 103279
27 february, sat
sat2701:00−32sw239888 0.0 103333
04:00−32sw229891 0.0 103338
07:00−33sw229888 0.0 103424
10:00−32sw239864 0.0 103590
13:00−27sw249650 0.0 1035281
16:00−24ssw249584 0.0 1035322
19:00−27ssw229784 0.0 103529
22:00−30s22980 0.0 103619
28 february, sun
sun2801:00−31s23980 0.0 103635
04:00−32sse239827 0.0 103551
07:00−32se259831 0.0 103591
10:00−29se489686 0.0 1033236
13:00−24se489594 0.0 1031300
16:00−20ese51093100 0.0 1028383
19:00−19ese5119299 0.0 1025397
22:00−18ese51295100 0.1 1022454
1 march, mon
mon101:00−15ese51194100 0.5 1018491
04:00−13e51194100 0.6 1014491
07:00−10e51194100 1.5 1010478
10:00−9ene4895100 0.9 1008358
13:00−7nne2494100 1.4 1008336
16:00−5nnw2393100 0.1 1010496
19:00−8wnw2396100 0.3 101278
22:00−12wnw1297100 0.1 101321